• In Uzbekistan
  • List of Countries
  • For 7 days
  • Water Temperature
  • Satellite Maps
  • Weather Map
  • Weather Widgets
  • user-avatar
    Login

    Hourly Weather Zalaegerszeg

    Today, 19 September, Wednesday

    Time Temperature Precipitation Wind Pressure Humidity
    00:00 +18°C° 0 mm 1 mps 751 mmHg 62%
    01:00 +18°C° 0 mm 1 mps 751 mmHg 61%
    02:00 +18°C° 0 mm 1 mps 751 mmHg 63%
    03:00 +16°C° 0 mm 1 mps 751 mmHg 64%
    04:00 +16°C° 0 mm 1 mps 751 mmHg 66%
    05:00 +18°C° 0 mm 1 mps 751 mmHg 64%
    06:00 +19°C° 0 mm 1 mps 751 mmHg 62%
    07:00 +17°C° 0 mm 0 mps 751 mmHg 58%
    08:00 +20°C° 0 mm 0 mps 751 mmHg 52%
    09:00 +22°C° 0 mm 0 mps 752 mmHg 47%
    10:00 +25°C° 0 mm 0 mps 752 mmHg 41%
    11:00 +28°C° 0 mm 1 mps 752 mmHg 39%
    12:00 +29°C° 0 mm 1 mps 751 mmHg 37%
    13:00 +30°C° 0 mm 1 mps 751 mmHg 36%
    14:00 +28°C° 0 mm 0 mps 751 mmHg 36%
    15:00 +28°C° 0 mm 0 mps 751 mmHg 36%
    16:00 +27°C° 0 mm 0 mps 750 mmHg 37%
    17:00 +25°C° 0 mm 0 mps 751 mmHg 42%
    18:00 +25°C° 0 mm 1 mps 751 mmHg 47%
    19:00 +23°C° 0 mm 1 mps 751 mmHg 53%
    20:00 +22°C° 0 mm 1 mps 751 mmHg 54%
    21:00 +22°C° 0 mm 1 mps 751 mmHg 56%
    22:00 +21°C° 0 mm 1 mps 751 mmHg 57%
    23:00 +21°C° 0 mm 1 mps 751 mmHg 59%

    Tomorrow, 20 September, Thursday

    Time Temperature Precipitation Wind Pressure Humidity
    00:00 +20°C° 0 mm 1 mps 751 mmHg 60%
    01:00 +20°C° 0 mm 1 mps 751 mmHg 61%
    02:00 +19°C° 0 mm 1 mps 751 mmHg 62%
    03:00 +19°C° 0 mm 1 mps 751 mmHg 63%
    04:00 +19°C° 0 mm 1 mps 751 mmHg 65%
    05:00 +19°C° 0 mm 1 mps 751 mmHg 63%
    06:00 +20°C° 0 mm 1 mps 751 mmHg 62%
    07:00 +20°C° 0 mm 1 mps 752 mmHg 61%
    08:00 +23°C° 0 mm 1 mps 752 mmHg 54%
    09:00 +25°C° 0 mm 1 mps 752 mmHg 46%
    10:00 +27°C° 0 mm 2 mps 752 mmHg 39%
    11:00 +29°C° 0 mm 1 mps 752 mmHg 37%
    12:00 +30°C° 0 mm 1 mps 751 mmHg 35%
    13:00 +31°C° 0 mm 1 mps 751 mmHg 33%
    14:00 +31°C° 0 mm 1 mps 751 mmHg 33%
    15:00 +30°C° 0 mm 1 mps 750 mmHg 33%
    16:00 +30°C° 0 mm 1 mps 750 mmHg 33%
    17:00 +28°C° 0 mm 1 mps 750 mmHg 38%
    18:00 +25°C° 0 mm 1 mps 750 mmHg 44%
    19:00 +23°C° 0 mm 1 mps 750 mmHg 49%
    20:00 +22°C° 0 mm 1 mps 750 mmHg 51%
    21:00 +22°C° 0 mm 1 mps 750 mmHg 53%
    22:00 +21°C° 0 mm 1 mps 750 mmHg 55%
    23:00 +20°C° 0 mm 1 mps 750 mmHg 56%

    Day after tomorrow, 21 September, Friday

    Time Temperature Precipitation Wind Pressure Humidity
    00:00 +20°C° 0 mm 1 mps 750 mmHg 58%
    01:00 +19°C° 0 mm 1 mps 750 mmHg 59%
    02:00 +19°C° 0 mm 1 mps 749 mmHg 60%
    03:00 +19°C° 0 mm 1 mps 749 mmHg 61%
    04:00 +18°C° 0 mm 1 mps 749 mmHg 62%
    05:00 +19°C° 0 mm 1 mps 749 mmHg 61%
    06:00 +19°C° 0 mm 1 mps 749 mmHg 60%
    07:00 +20°C° 0 mm 1 mps 749 mmHg 58%
    08:00 +23°C° 0 mm 2 mps 749 mmHg 51%
    09:00 +25°C° 0 mm 3 mps 749 mmHg 44%
    10:00 +28°C° 0 mm 3 mps 749 mmHg 37%
    11:00 +29°C° 0 mm 3 mps 749 mmHg 34%
    12:00 +30°C° 0 mm 4 mps 748 mmHg 31%
    13:00 +32°C° 0 mm 4 mps 748 mmHg 28%
    14:00 +31°C° 0 mm 3 mps 747 mmHg 28%
    15:00 +31°C° 0 mm 3 mps 747 mmHg 29%
    16:00 +30°C° 0 mm 3 mps 747 mmHg 30%
    17:00 +28°C° 0 mm 2 mps 747 mmHg 36%
    18:00 +26°C° 0 mm 2 mps 747 mmHg 42%
    19:00 +23°C° 0 mm 2 mps 747 mmHg 48%
    20:00 +23°C° 0 mm 2 mps 747 mmHg 51%
    21:00 +21°C° 0 mm 2 mps 748 mmHg 54%
    22:00 +20°C° 0 mm 2 mps 748 mmHg 56%
    23:00 +21°C° 0 mm 1 mps 748 mmHg 59%

    22 September, Saturday

    Time Temperature Precipitation Wind Pressure Humidity
    00:00 +20°C° 0 mm 1 mps 747 mmHg 62%
    01:00 +20°C° 0 mm 1 mps 747 mmHg 64%
    02:00 +19°C° 0 mm 1 mps 747 mmHg 68%
    03:00 +19°C° 0 mm 1 mps 747 mmHg 71%
    04:00 +19°C° 0 mm 1 mps 747 mmHg 74%
    05:00 +18°C° 0 mm 2 mps 748 mmHg 73%
    06:00 +19°C° 0 mm 3 mps 748 mmHg 71%
    07:00 +19°C° 0 mm 4 mps 748 mmHg 70%
    08:00 +20°C° 0 mm 6 mps 749 mmHg 66%
    09:00 +20°C° 0 mm 7 mps 750 mmHg 63%
    10:00 +20°C° 0 mm 8 mps 750 mmHg 59%
    11:00 +18°C° 0 mm 8 mps 750 mmHg 57%
    12:00 +17°C° 0 mm 8 mps 751 mmHg 55%
    13:00 +16°C° 0 mm 7 mps 751 mmHg 53%
    14:00 +15°C° 0.1 mm 7 mps 751 mmHg 58%
    15:00 +14°C° 0.1 mm 6 mps 751 mmHg 63%
    16:00 +13°C° 0.1 mm 6 mps 752 mmHg 68%
    17:00 +12°C° 0.5 mm 5 mps 752 mmHg 73%
    18:00 +11°C° 0.5 mm 4 mps 753 mmHg 78%
    19:00 +11°C° 0.5 mm 3 mps 754 mmHg 82%
    20:00 +11°C° 0.4 mm 3 mps 754 mmHg 84%
    21:00 +12°C° 0.4 mm 2 mps 755 mmHg 86%
    22:00 +11°C° 0.4 mm 1 mps 755 mmHg 87%
    23:00 +11°C° 0.1 mm 1 mps 755 mmHg 88%

    23 September, Sunday

    Time Temperature Precipitation Wind Pressure Humidity
    00:00 +10°C° 0.1 mm 2 mps 755 mmHg 88%
    01:00 +10°C° 0.1 mm 2 mps 754 mmHg 89%
    02:00 +10°C° 0 mm 2 mps 754 mmHg 89%
    03:00 +12°C° 0 mm 2 mps 754 mmHg 89%
    04:00 +12°C° 0 mm 2 mps 754 mmHg 90%
    05:00 +12°C° 0 mm 2 mps 754 mmHg 88%
    06:00 +12°C° 0 mm 2 mps 754 mmHg 87%
    07:00 +12°C° 0 mm 1 mps 753 mmHg 85%
    08:00 +14°C° 0 mm 2 mps 753 mmHg 76%
    09:00 +15°C° 0 mm 2 mps 753 mmHg 67%
    10:00 +17°C° 0 mm 3 mps 752 mmHg 58%
    11:00 +18°C° 0 mm 3 mps 751 mmHg 52%
    12:00 +20°C° 0 mm 4 mps 750 mmHg 46%
    13:00 +22°C° 0 mm 5 mps 750 mmHg 40%
    14:00 +22°C° 0 mm 5 mps 749 mmHg 41%
    15:00 +22°C° 0 mm 5 mps 748 mmHg 42%
    16:00 +23°C° 0 mm 5 mps 747 mmHg 43%
    17:00 +21°C° 0 mm 5 mps 746 mmHg 48%
    18:00 +20°C° 0 mm 5 mps 745 mmHg 53%
    19:00 +19°C° 0 mm 5 mps 744 mmHg 58%
    20:00 +19°C° 0 mm 5 mps 744 mmHg 58%
    21:00 +19°C° 0 mm 6 mps 743 mmHg 58%
    22:00 +18°C° 0 mm 7 mps 742 mmHg 58%
    23:00 +20°C° 0 mm 7 mps 742 mmHg 61%

    24 September, Monday

    Time Temperature Precipitation Wind Pressure Humidity
    00:00 +20°C° 0 mm 7 mps 741 mmHg 63%
    01:00 +20°C° 0 mm 7 mps 741 mmHg 66%
    02:00 +20°C° 0 mm 5 mps 741 mmHg 71%
    03:00 +20°C° 0 mm 4 mps 741 mmHg 75%
    04:00 +19°C° 0 mm 3 mps 741 mmHg 79%
    05:00 +19°C° 0.5 mm 3 mps 741 mmHg 79%
    06:00 +18°C° 0.5 mm 4 mps 741 mmHg 78%
    07:00 +16°C° 0.5 mm 5 mps 741 mmHg 77%
    08:00 +15°C° 3.7 mm 6 mps 741 mmHg 80%
    09:00 +12°C° 3.7 mm 7 mps 741 mmHg 82%
    10:00 +10°C° 3.7 mm 8 mps 741 mmHg 85%
    11:00 +10°C° 5.5 mm 6 mps 741 mmHg 87%
    12:00 +9°C° 5.5 mm 5 mps 742 mmHg 89%
    13:00 +10°C° 5.5 mm 4 mps 742 mmHg 91%
    14:00 +10°C° 3.7 mm 3 mps 743 mmHg 91%
    15:00 +10°C° 3.7 mm 2 mps 744 mmHg 92%
    16:00 +11°C° 3.7 mm 1 mps 745 mmHg 92%
    17:00 +10°C° 0.5 mm 2 mps 745 mmHg 92%
    18:00 +10°C° 0.5 mm 2 mps 746 mmHg 91%
    19:00 +10°C° 0.5 mm 2 mps 747 mmHg 91%
    20:00 +10°C° 0 mm 2 mps 747 mmHg 90%
    21:00 +10°C° 0 mm 2 mps 748 mmHg 90%
    22:00 +9°C° 0 mm 2 mps 749 mmHg 89%
    23:00 +9°C° 0 mm 2 mps 749 mmHg 89%
    Show more